Location: Azul
(36.7830°S, 59.8500°W)
Time: 16:47:23
(UTC-03:00)

BUGSAT 1 - Pass Details

Date: 26 October 2021
Orbit: 558 x 600 km, 98.1° (Epoch: 06 December)

Event Time Altitude Azimuth Distance (km) Brightness Sun altitude
Rises 04:18:20 0° 42° (NE) 2,807 ? -19.4°
Reaches altitude 10° 04:20:44 10° 54° (NE) 1,923 ? -19.0°
Maximum altitude 04:24:12 26° 110° (ESE) 1,199 ? -18.4°
Drops below altitude 10° 04:27:44 10° 167° (SSE) 1,964 ? -17.8°
Sets 04:30:12 0° 179° (S) 2,881 ? -17.4°
